Location: Seven Kings
(51.5667°N, 0.1000°E)
Time: 21:30:56
(UTC+00:00)

X-37B - Pass Details

Date: 22 June 2021
Orbit: 383 x 392 km, 45.0° (Epoch: 01 July)

Event Time Altitude Azimuth Distance (km) Brightness Sun altitude
Exits shadow 01:43:00 18° 178° (S) 1,009 2.1 -11.8°
Drops below altitude 10° 01:44:46 10° 146° (SE) 1,404 3.1 -11.7°
Sets 01:47:10 0° 128° (SE) 2,257 4.3 -11.5°
